{"data":{"norad_id":59961,"intl_designator":"2024-107S","name":"STARLINK-31993","alt_names":[],"object_type":"PAYLOAD","status":"ACTIVE","operator":null,"country":"US","launch_date":"2024-06-05","launch_site_code":"AFETR","launch_vehicle":null,"mission":null,"orbit_class":"UNKNOWN","rcs_meters":null,"size_class":null,"mass_kg":null,"dimensions":null,"purposes":["comms"],"wikipedia_slug":null,"has_3d_model":false,"image_url":null,"decayed_at":null,"tle_current":{"epoch":"2026-09-21T15:38:03.332544Z","epoch_age_seconds":78203,"freshness":"FRESH","line1":"1 59961U 24107S   26264.65142746 -.00000324  00000+0  15366-5 0  9994","line2":"2 59961  53.1588 232.1485 0001332  80.7011 279.4143 15.34391015129782","mean_motion":15.34391015,"eccentricity":0.0001332,"inclination_deg":53.1588,"raan_deg":232.1485,"arg_perigee_deg":80.7011,"mean_anomaly_deg":279.4143,"bstar":1.5366e-6,"rev_number":12978,"period_min":93.848307629721,"perigee_km":461.81874217376,"apogee_km":463.64114912809,"semimajor_km":6840.8669456509,"source":"CELESTRAK","updated_at":"2026-09-22T09:00:49.118626Z"}}}